Location: Sebastopol
(38.4021°N, 122.8239°W)
Time: 14:40:09
(UTC+00:00)

Cosmos 2360 - Pass Details

Date: 29 October 2020
Orbit: 848 x 854 km, 70.8° (Epoch: 01 December)

Event Time Altitude Azimuth Distance (km) Brightness Sun altitude
Exits shadow 13:15:30 11° 324° (NW) 2,395 6.2 -16.1°
Maximum altitude 13:20:38 45° 254° (WSW) 1,147 4.5 -15.1°
Drops below altitude 10° 13:25:59 10° 183° (S) 2,463 6.7 -14.1°
Sets 13:28:30 0° 177° (S) 3,394 7.5 -13.6°
